Tracking 19709 objects as of 19-Jun-2019
HD Live streaming from Space Station
objects crossing your sky now

COSMOS 2148

Track COSMOS 2148 now!
10-day predictions
COSMOS 2148 is classified as:


NORAD ID: 21304
Int'l Code: 1991-033F
Perigee: 1,387.3 km
Apogee: 1,424.3 km
Inclination: 82.6 °
Period: 113.8 minutes
Semi major axis: 7776 km
RCS: 1.1839 m2 (large)
Launch date: May 16, 1991
Source: Commonwealth of Independent States (former USSR) (CIS)
Launch site: PLESETSK MISSILE AND SPACE COMPLEX (PKMTR)
aabbcc
Your satellite tracking list
Your tracking list is empty




NASA's NSSDC Master Catalog

Two Line Element Set (TLE):
1 21304U 91033F   19169.84546869  .00000008  00000-0 -15609-4 0  9996
2 21304  82.5729 112.7059 0023778  23.3568  28.4024 12.65909463298031
Source of the keplerian elements: AFSPC